Location: Isle of Man Observatory
(54.1776°N, 4.6264°W)
Time: 14:29:54
(UTC+02:00)

ARIANE 6 FM1 Upper Stage - Pass Details

Date: 23 April 2026
Orbit: 526 x 601 km, 62.0° (Epoch: 19 May)

Event Time Altitude Azimuth Distance (km) Brightness Sun altitude
Rises 23:30:17 0° 302° (WNW) 2,692 7.7 -14.3°
Reaches altitude 10° 23:32:39 10° 312° (NW) 1,791 6.6 -14.6°
Maximum altitude 23:36:21 35° 19° (NNE) 868 3.9 -14.9°
Enters shadow 23:39:36 13° 84° (E) 1,614 4.7 -15.2°
